Location: Bryzozowice
(50.3667°N, 18.9667°E)
Time: 12:02:50
(UTC+00:00)

SL-8 Rocket - Pass Details

Date: 24 January 2020
Orbit: 956 x 991 km, 82.9° (Epoch: 27 February)

Event Time Altitude Azimuth Distance (km) Brightness Sun altitude
Rises 17:17:36 0° 192° (SSW) 3,690 7.3 -18.0°
Reaches altitude 10° 17:20:07 10° 194° (SSW) 2,743 6.6 -18.4°
Maximum altitude 17:26:26 77° 281° (W) 1,013 4.1 -19.4°
Drops below altitude 10° 17:32:44 10° 8° (N) 2,742 6.2 -20.4°
Sets 17:35:16 0° 10° (N) 3,688 6.9 -20.8°
